DateTimeUTC,F1_A11,F1_S11,BsB_S11,BsG_S11,BsR_S11,BbsB_S11,BbsG_S11,BbsR_S11,BaB_A11,BaG_A11,BaR_A11,Tu_S11,T_S11,Uu_S11,U_S11,P_S11,T1_A11
2021-08-06T05:00:00Z,00000200,20000000,,,,,,,0000.21,-000.11,0000.04,18.4,25.2,01.7,01.1,0667.9,31.0
2021-08-06T05:01:00Z,00000200,20000000,,,,,,,-000.44,-000.38,0000.01,18.4,25.2,01.7,01.1,0667.9,31.0
2021-08-06T05:02:00Z,00000200,20000000,,,,,,,0000.56,0000.42,0000.28,18.4,25.2,01.7,01.1,0667.9,31.0
2021-08-06T05:03:00Z,00000200,60000000,,,,,,,0000.34,0000.60,0000.58,18.4,25.2,01.7,01.1,0667.9,30.9
2021-08-06T05:04:00Z,00000200,40000000,0004.00,0003.11,0002.12,0000.77,0000.57,0000.30,0001.05,0000.77,0000.43,18.4,24.9,01.9,01.3,0668.9,30.9
2021-08-06T05:05:00Z,00000200,01000000,0004.50,0003.12,0002.23,0000.80,-000.01,0000.36,0000.73,0000.75,0000.52,18.4,24.9,01.9,01.3,0668.9,30.9
2021-08-06T05:06:00Z,00000200,00000000,0005.50,0003.44,0002.20,0000.79,0000.46,0000.35,0001.28,0000.85,0000.64,18.4,24.9,01.9,01.3,0668.9,30.9
2021-08-06T05:07:00Z,00000200,00000000,0005.53,0003.45,0002.10,0000.54,0000.43,0000.26,0001.04,0001.44,0000.71,18.3,24.8,01.9,01.3,0668.9,30.9
2021-08-06T05:08:00Z,00000200,00000000,0005.66,0003.85,0001.82,0000.31,0000.68,0000.32,0001.21,0000.61,0001.17,18.3,24.8,02.1,01.4,0668.9,30.9
2021-08-06T05:09:00Z,00000200,00000000,0005.02,0003.50,0002.44,0000.27,0000.41,0000.49,0001.33,0001.23,0000.93,18.3,24.8,02.1,01.4,0668.9,30.9
2021-08-06T05:10:00Z,00000200,00000000,0004.97,0003.52,0002.31,0000.26,0000.18,0000.44,0001.24,0001.26,0000.50,18.4,24.8,02.2,01.5,0668.9,30.9
2021-08-06T05:11:00Z,00000200,00000000,0005.51,0003.89,0002.60,0000.74,0000.63,0000.47,0000.95,0000.85,0001.50,18.5,24.9,02.1,01.4,0668.9,31.0
2021-08-06T05:12:00Z,00000200,00000000,0005.89,0003.62,0002.33,0000.63,0000.94,0000.53,0001.63,0001.46,0000.58,18.6,24.9,02.2,01.5,0668.9,31.0
2021-08-06T05:13:00Z,00000200,00000000,0006.52,0003.34,0002.59,0001.02,0000.60,0000.33,0000.91,0001.11,0000.71,18.7,24.9,02.3,01.6,0668.9,31.0
2021-08-06T05:14:00Z,00000200,00000000,0005.06,0003.86,0002.28,0001.26,0000.68,0000.88,0000.94,0000.85,0000.81,18.7,24.9,02.3,01.5,0668.9,31.0
2021-08-06T05:15:00Z,00000200,00000000,0005.23,0003.99,0002.49,0000.85,0000.42,0000.69,0001.24,0001.05,0000.51,18.6,24.9,02.3,01.6,0668.9,31.0
2021-08-06T05:16:00Z,00000200,00000000,0005.11,0003.88,0002.06,-000.06,0000.56,0000.58,0000.86,0000.48,0000.83,18.6,24.9,02.3,01.6,0668.8,31.0
2021-08-06T05:17:00Z,00000200,00000000,0005.68,0003.65,0002.52,0000.45,0000.38,0000.42,0001.59,0001.37,0000.85,18.5,24.9,02.2,01.5,0668.8,30.9
2021-08-06T05:18:00Z,00000200,00000000,0006.09,0003.61,0002.47,0001.11,0000.59,0000.31,0001.18,0001.38,0001.21,18.5,24.8,02.3,01.6,0668.8,30.9
2021-08-06T05:19:00Z,00000200,00000000,0006.07,0003.93,0002.60,0001.19,0000.67,0000.29,0001.12,0001.19,0000.85,18.4,24.8,02.4,01.6,0668.8,30.9
2021-08-06T05:20:00Z,00000200,00000000,0006.09,0003.52,0002.41,0000.86,0000.56,0000.73,0001.18,0001.01,0000.51,18.4,24.8,02.4,01.6,0668.8,30.9
2021-08-06T05:21:00Z,00000200,00000000,0005.63,0003.98,0002.31,0000.17,0000.78,0000.34,0001.10,0000.76,0001.04,18.4,24.8,02.4,01.6,0668.8,30.9
2021-08-06T05:22:00Z,00000200,00000000,0004.88,0003.65,0002.56,0000.35,0000.54,0000.61,0001.66,0001.58,0000.78,18.3,24.8,02.4,01.6,0668.8,30.9
2021-08-06T05:23:00Z,00000200,00000000,0006.10,0003.74,0002.69,0000.39,0000.57,0000.67,0001.03,0001.20,0001.10,18.3,24.8,02.5,01.7,0668.8,30.9
2021-08-06T05:24:00Z,00000200,00000000,0006.28,0003.78,0002.30,0000.36,0000.69,0000.22,0001.37,0000.86,0001.27,18.3,24.8,02.5,01.7,0668.8,30.9
2021-08-06T05:25:00Z,00000200,00000000,0005.42,0003.97,0002.31,0000.79,0000.39,0000.66,0001.46,0001.67,0000.55,18.4,24.8,02.5,01.7,0668.8,30.9
2021-08-06T05:26:00Z,00000200,00000000,0005.20,0004.07,0002.22,0000.66,0000.43,0000.28,0000.56,0000.32,0000.56,18.5,24.8,02.6,01.7,0668.8,31.0
2021-08-06T05:27:00Z,00000200,00000000,0005.90,0004.22,0002.46,0000.15,0000.59,0000.75,0001.32,0001.27,0000.99,18.5,24.8,02.5,01.7,0668.8,30.9
2021-08-06T05:28:00Z,00000200,00000000,0005.46,0003.53,0002.34,0000.99,0000.45,0000.42,0000.45,0000.38,0000.13,18.5,24.8,02.3,01.6,0668.8,30.9
2021-08-06T05:29:00Z,00000200,00000000,0005.40,0003.60,0002.51,0000.49,0000.72,0000.35,0000.78,0000.98,0000.61,18.5,24.8,02.1,01.4,0668.8,30.9
2021-08-06T05:30:00Z,00000200,00000000,0005.54,0003.92,0002.27,0000.52,0000.57,0000.50,0001.49,0001.14,0000.66,18.4,24.8,02.3,01.6,0668.8,30.9
2021-08-06T05:31:00Z,00000200,00000000,0006.38,0003.66,0002.32,0001.07,0000.74,0000.57,0001.38,0001.73,0001.20,18.4,24.8,02.4,01.6,0668.8,30.9
2021-08-06T05:32:00Z,00000200,00000000,0006.30,0004.19,0002.57,0001.10,0000.47,0000.74,0001.13,0000.20,0000.75,18.4,24.8,02.4,01.6,0668.8,30.9
2021-08-06T05:33:00Z,00000200,00000000,0005.97,0003.62,0002.64,0000.50,0000.46,0000.92,0000.58,0000.50,0000.32,18.3,24.7,02.3,01.5,0668.8,30.9
2021-08-06T05:34:00Z,00000200,00000000,0005.38,0003.26,0002.25,0000.79,0000.50,0000.20,0001.06,0001.15,0000.34,18.3,24.7,02.2,01.5,0668.8,30.9
2021-08-06T05:35:00Z,00000200,00000000,0005.29,0003.62,0002.20,0000.94,0000.64,0000.49,0001.16,0001.10,0001.63,18.2,24.7,02.2,01.5,0668.8,30.9
2021-08-06T05:36:00Z,00000200,00000000,0006.23,0003.78,0002.54,0000.40,0000.51,0000.31,0001.52,0001.64,0000.69,18.2,24.7,02.4,01.6,0668.8,30.9
2021-08-06T05:37:00Z,00000200,00000000,0006.19,0003.63,0002.87,0000.76,0000.72,0001.00,0001.67,0001.76,0001.28,18.2,24.7,02.5,01.7,0668.7,30.9
2021-08-06T05:38:00Z,00000200,00000000,0006.23,0004.59,0002.41,0000.80,0000.78,0000.50,0001.59,0001.17,0001.08,18.2,24.6,02.6,01.8,0668.7,30.9
2021-08-06T05:39:00Z,00000200,00000000,0005.56,0003.75,0002.44,0000.73,0000.86,0000.40,0000.40,0000.64,0000.68,18.2,24.6,02.5,01.7,0668.7,30.9
2021-08-06T05:40:00Z,00000200,00000000,0006.01,0004.05,0002.32,0001.40,0000.55,0000.74,0001.64,0001.20,0001.13,18.3,24.7,02.4,01.7,0668.7,30.9
2021-08-06T05:41:00Z,00000200,00000000,0005.38,0003.89,0002.78,0000.75,0000.46,0000.85,0001.27,0001.12,0000.74,18.4,24.7,02.5,01.7,0668.7,30.9
2021-08-06T05:42:00Z,00000200,00000000,0006.50,0004.33,0002.56,0000.62,0000.48,0000.64,0001.43,0001.10,0001.44,18.5,24.8,02.6,01.8,0668.8,31.0
2021-08-06T05:43:00Z,00000200,00000000,0005.78,0004.18,0002.34,0000.62,0000.86,0000.22,0001.72,0001.94,0000.68,18.5,24.8,02.8,01.9,0668.8,31.0
2021-08-06T05:44:00Z,00000200,00000000,0006.20,0004.54,0002.61,0000.59,0000.44,0000.40,0001.11,0001.08,0000.94,18.5,24.8,02.7,01.8,0668.8,31.0
2021-08-06T05:45:00Z,00000200,00000000,0006.41,0003.86,0002.75,0000.59,0000.61,0000.38,0000.89,0000.75,0000.55,18.5,24.8,02.6,01.8,0668.8,31.0
2021-08-06T05:46:00Z,00000200,00000000,0006.11,0003.88,0002.54,0000.51,0000.67,0000.18,0001.07,0000.95,0000.97,18.5,24.8,02.6,01.7,0668.8,30.9
2021-08-06T05:47:00Z,00000200,00000000,0005.48,0003.84,0002.49,0000.53,0000.62,0000.56,0001.37,0000.79,0000.47,18.4,24.7,02.5,01.7,0668.8,30.9
2021-08-06T05:48:00Z,00000200,00000000,0005.36,0003.69,0002.65,0000.88,0000.48,0000.86,0001.10,0001.42,0000.76,18.4,24.7,02.5,01.7,0668.8,30.9
2021-08-06T05:49:00Z,00000200,00000000,0005.21,0003.70,0002.08,0001.15,0000.51,0000.43,0001.13,0000.80,0001.02,18.3,24.7,02.6,01.8,0668.8,30.9
2021-08-06T05:50:00Z,00000200,00000000,0005.63,0003.95,0002.73,0000.67,0000.67,0000.64,0001.53,0001.62,0001.03,18.3,24.7,02.7,01.8,0668.8,30.9
2021-08-06T05:51:00Z,00000200,00000000,0006.66,0004.22,0002.50,0000.81,0000.64,0000.45,0002.10,0001.81,0001.34,18.3,24.6,02.8,01.9,0668.8,30.9
2021-08-06T05:52:00Z,00000200,00000000,0005.85,0004.30,0002.21,0000.24,0000.36,0000.38,0001.10,0001.07,0001.12,18.2,24.6,02.9,01.9,0668.8,30.9
2021-08-06T05:53:00Z,00000200,00000000,0005.98,0004.61,0002.46,0000.60,0000.81,0000.78,0001.69,0001.09,0001.17,18.2,24.6,02.9,01.9,0668.8,30.9
2021-08-06T05:54:00Z,00000200,00000000,0005.86,0004.71,0003.07,0000.42,0000.92,0000.66,0001.16,0001.44,0000.75,18.2,24.6,02.9,02.0,0668.8,30.9
2021-08-06T05:55:00Z,00000200,00000000,0005.73,0004.16,0002.40,0000.70,0000.58,0000.47,0000.81,0001.07,0000.27,18.3,24.7,02.7,01.8,0668.7,30.9
2021-08-06T05:56:00Z,00000200,00000000,0006.14,0004.12,0002.43,0000.40,0000.50,0000.46,0001.17,0000.59,0000.93,18.4,24.7,02.5,01.7,0668.8,31.0
2021-08-06T05:57:00Z,00000200,40000000,,,,,,,-000.07,-000.20,-000.30,18.5,24.8,02.8,01.9,0668.7,31.0
2021-08-06T05:58:00Z,00000200,60000000,,,,,,,-000.32,-000.00,0000.04,18.3,24.9,02.1,01.4,0667.8,31.0
2021-08-06T05:59:00Z,00000200,20000000,,,,,,,0000.39,0000.22,0000.16,18.3,25.0,02.2,01.5,0667.8,31.0
